Regional Weather Roundup
Issued by NWS

Home | Current Version | Previous Version | Text Only | Print | Product List | Glossary Off
Versions: 1 2 3 4 5 6 7 8 9 10 11 12 13 14 15 16 17 18 19 20 21 22 23 24 25 26 27 28 29 30 31 32 33 34 35 36 37 38 39 40 41 42 43 44 45 46 47 48 49 50

000
ASUS45 KSLC 281110
RWRUT

UTAH REGIONAL WEATHER ROUNDUP
NATIONAL WEATHER SERVICE SALT LAKE CITY UT
500 AM MDT MON JUL 28 2014

UTZ001>011-023>025-281200-

NORTHERN UTAH

CITY           SKY/WX    TMP DP  RH WIND       PRES   REMARKS
HILL AFB       CLOUDY    76  41  28 E10       30.20R
LOGAN          CLEAR     59  52  77 CALM      30.18R
OGDEN          MOCLDY    73  43  33 S9        30.17R
PROVO AIRPORT  MOCLDY    77  48  36 S12       30.21R
SALT LAKE CITY MOCLDY    82  44  26 NE3       30.14R
VERNAL         MOCLDY    64  44  48 NW5       30.28R
WENDOVER       CLOUDY    81  48  32 NW3       30.15R
HEBER CITY     PTCLDY    61  46  59 CALM      30.28R
WEST JORDAN    CLEAR     81  54  39 SW7       30.18R

$$

UTZ012>022-026-027-281200-

SOUTHERN UTAH

CITY           SKY/WX    TMP DP  RH WIND       PRES   REMARKS
BRYCE CANYON   CLOUDY    56  55  97 N9        30.47S
CEDAR CITY     CLOUDY    66  54  65 NE8       30.29S
MILFORD        MOCLDY    71  53  52 S9        30.26R
MOAB/CYNLANDS  MOCLDY    70  60  70 VRB3      30.24S
PRICE          CLOUDY    70  49  47 NE9       30.35S
ST GEORGE      MOSUNNY   77  57  50 E9        30.14S

$$

REGIONAL REPORTS     COLORADO/ARIZONA

CITY           SKY/WX    TMP DP  RH WIND       PRES   REMARKS
CRAIG, CO      PTCLDY    42  42 100 CALM      30.37R
GRAND JUNCTION PTCLDY    68  49  50 CALM      30.28R
RIFLE          MOCLDY    63  48  58 E7        30.34R
MONTROSE       CLOUDY    67  52  58 E3        30.38R
CORTEZ         CLOUDY    65  59  81 E3        30.40F
PAGE, AZ       PTCLDY    75  54  47 SW5       30.23S
GRAND CANYON   CLOUDY    59  55  87 E7        30.38F
KINGMAN        MOCLDY    78  55  44 SE13      30.14R
FLAGSTAFF      CLOUDY    58  52  80 CALM      30.42F

$$

REGIONAL REPORTS    NEVADA/IDAHO/WYOMING

CITY           SKY/WX    TMP DP  RH WIND       PRES   REMARKS
LAS VEGAS, NV  CLOUDY    82  61  48 SW7       30.02S
ELY            CLOUDY    61  50  67 SE6       30.33S
ELKO           CLOUDY    73  46  38 NE3       30.21S
POCATELLO, ID  CLEAR     58  43  57 CALM      30.17R
BURLEY         MOCLDY    71  44  37 SW9       30.11F
EVANSTON, WY   MOCLDY    64  24  21 E3        30.39S
ROCK SPRINGS   PTCLDY    61  45  55 E7        30.39S

$$



USA.gov is the U.S. government's official web portal to all federal, state and local government web resources and services.